"Time","Value","Approval","myLocation"
"2023-05-06 00:00",4.682,"Approved","OW185"
"2023-05-06 01:00",4.681,"Approved","OW185"
"2023-05-06 02:00",4.681,"Approved","OW185"
"2023-05-06 03:00",4.681,"Approved","OW185"
"2023-05-06 04:00",4.681,"Approved","OW185"
"2023-05-06 05:00",4.679,"Approved","OW185"
"2023-05-06 06:00",4.68,"Approved","OW185"
"2023-05-06 07:00",4.679,"Approved","OW185"
"2023-05-06 08:00",4.679,"Approved","OW185"
"2023-05-06 09:00",4.679,"Approved","OW185"
"2023-05-06 10:00",4.678,"Approved","OW185"
"2023-05-06 11:00",4.678,"Approved","OW185"
"2023-05-06 12:00",4.677,"Approved","OW185"
"2023-05-06 13:00",4.677,"Approved","OW185"
"2023-05-06 14:00",4.677,"Approved","OW185"
"2023-05-06 15:00",4.676,"Approved","OW185"
"2023-05-06 16:00",4.676,"Approved","OW185"
"2023-05-06 17:00",4.675,"Approved","OW185"
"2023-05-06 18:00",4.675,"Approved","OW185"
"2023-05-06 19:00",4.674,"Approved","OW185"
"2023-05-06 20:00",4.674,"Approved","OW185"
"2023-05-06 21:00",4.674,"Approved","OW185"
"2023-05-06 22:00",4.673,"Approved","OW185"
"2023-05-06 23:00",4.673,"Approved","OW185"
"2023-05-07 00:00",4.672,"Approved","OW185"
"2023-05-07 01:00",4.672,"Approved","OW185"
"2023-05-07 02:00",4.671,"Approved","OW185"
"2023-05-07 03:00",4.671,"Approved","OW185"
"2023-05-07 04:00",4.671,"Approved","OW185"
"2023-05-07 05:00",4.67,"Approved","OW185"
"2023-05-07 06:00",4.67,"Approved","OW185"
"2023-05-07 07:00",4.669,"Approved","OW185"
"2023-05-07 08:00",4.669,"Approved","OW185"
"2023-05-07 09:00",4.668,"Approved","OW185"
"2023-05-07 10:00",4.668,"Approved","OW185"
"2023-05-07 11:00",4.667,"Approved","OW185"
"2023-05-07 12:00",4.667,"Approved","OW185"
"2023-05-07 13:00",4.666,"Approved","OW185"
"2023-05-07 14:00",4.666,"Approved","OW185"
"2023-05-07 15:00",4.666,"Approved","OW185"
"2023-05-07 16:00",4.665,"Approved","OW185"
"2023-05-07 17:00",4.665,"Approved","OW185"
"2023-05-07 18:00",4.664,"Approved","OW185"
"2023-05-07 19:00",4.664,"Approved","OW185"
"2023-05-07 20:00",4.664,"Approved","OW185"
"2023-05-07 21:00",4.663,"Approved","OW185"
"2023-05-07 22:00",4.663,"Approved","OW185"
"2023-05-07 23:00",4.662,"Approved","OW185"
"2023-05-08 00:00",4.662,"Approved","OW185"
"2023-05-08 01:00",4.661,"Approved","OW185"
"2023-05-08 02:00",4.661,"Approved","OW185"
"2023-05-08 03:00",4.66,"Approved","OW185"
"2023-05-08 04:00",4.66,"Approved","OW185"
"2023-05-08 05:00",4.659,"Approved","OW185"
"2023-05-08 06:00",4.659,"Approved","OW185"
"2023-05-08 07:00",4.658,"Approved","OW185"
"2023-05-08 08:00",4.658,"Approved","OW185"
"2023-05-08 09:00",4.657,"Approved","OW185"
"2023-05-08 10:00",4.657,"Approved","OW185"
"2023-05-08 11:00",4.656,"Approved","OW185"
"2023-05-08 12:00",4.656,"Approved","OW185"
"2023-05-08 13:00",4.656,"Approved","OW185"
"2023-05-08 14:00",4.655,"Approved","OW185"
"2023-05-08 15:00",4.654,"Approved","OW185"
"2023-05-08 16:00",4.654,"Approved","OW185"
"2023-05-08 17:00",4.653,"Approved","OW185"
"2023-05-08 18:00",4.653,"Approved","OW185"
"2023-05-08 19:00",4.652,"Approved","OW185"
"2023-05-08 20:00",4.652,"Approved","OW185"
"2023-05-08 21:00",4.651,"Approved","OW185"
"2023-05-08 22:00",4.651,"Approved","OW185"
"2023-05-08 23:00",4.65,"Approved","OW185"
"2023-05-09 00:00",4.65,"Approved","OW185"
"2023-05-09 01:00",4.649,"Approved","OW185"
"2023-05-09 02:00",4.649,"Approved","OW185"
"2023-05-09 03:00",4.648,"Approved","OW185"
"2023-05-09 04:00",4.648,"Approved","OW185"
"2023-05-09 05:00",4.647,"Approved","OW185"
"2023-05-09 06:00",4.647,"Approved","OW185"
"2023-05-09 07:00",4.646,"Approved","OW185"
"2023-05-09 08:00",4.646,"Approved","OW185"
"2023-05-09 09:00",4.645,"Approved","OW185"
"2023-05-09 10:00",4.645,"Approved","OW185"
"2023-05-09 11:00",4.645,"Approved","OW185"
"2023-05-09 12:00",4.644,"Approved","OW185"
"2023-05-09 13:00",4.644,"Approved","OW185"
"2023-05-09 14:00",4.643,"Approved","OW185"
"2023-05-09 15:00",4.643,"Approved","OW185"
"2023-05-09 16:00",4.642,"Approved","OW185"
"2023-05-09 17:00",4.642,"Approved","OW185"
"2023-05-09 18:00",4.641,"Approved","OW185"
"2023-05-09 19:00",4.641,"Approved","OW185"
"2023-05-09 20:00",4.64,"Approved","OW185"
"2023-05-09 21:00",4.64,"Approved","OW185"
"2023-05-09 22:00",4.64,"Approved","OW185"
"2023-05-09 23:00",4.639,"Approved","OW185"
"2023-05-10 00:00",4.639,"Approved","OW185"
"2023-05-10 01:00",4.638,"Approved","OW185"
"2023-05-10 02:00",4.638,"Approved","OW185"
"2023-05-10 03:00",4.637,"Approved","OW185"
"2023-05-10 04:00",4.637,"Approved","OW185"
"2023-05-10 05:00",4.637,"Approved","OW185"
"2023-05-10 06:00",4.636,"Approved","OW185"
"2023-05-10 07:00",4.635,"Approved","OW185"
"2023-05-10 08:00",4.635,"Approved","OW185"
"2023-05-10 09:00",4.635,"Approved","OW185"
"2023-05-10 10:00",4.634,"Approved","OW185"
"2023-05-10 11:00",4.634,"Approved","OW185"
"2023-05-10 12:00",4.633,"Approved","OW185"
"2023-05-10 13:00",4.633,"Approved","OW185"
"2023-05-10 14:00",4.633,"Approved","OW185"
"2023-05-10 15:00",4.632,"Approved","OW185"
"2023-05-10 16:00",4.631,"Approved","OW185"
"2023-05-10 17:00",4.631,"Approved","OW185"
"2023-05-10 18:00",4.63,"Approved","OW185"
"2023-05-10 19:00",4.63,"Approved","OW185"
"2023-05-10 20:00",4.63,"Approved","OW185"
"2023-05-10 21:00",4.629,"Approved","OW185"
"2023-05-10 22:00",4.629,"Approved","OW185"
"2023-05-10 23:00",4.628,"Approved","OW185"
"2023-05-11 00:00",4.628,"Approved","OW185"
"2023-05-11 01:00",4.627,"Approved","OW185"
"2023-05-11 02:00",4.627,"Approved","OW185"
"2023-05-11 03:00",4.626,"Approved","OW185"
"2023-05-11 04:00",4.626,"Approved","OW185"
"2023-05-11 05:00",4.626,"Approved","OW185"
"2023-05-11 06:00",4.625,"Approved","OW185"
"2023-05-11 07:00",4.625,"Approved","OW185"
"2023-05-11 08:00",4.624,"Approved","OW185"
"2023-05-11 09:00",4.624,"Approved","OW185"
"2023-05-11 10:00",4.624,"Approved","OW185"
"2023-05-11 11:00",4.623,"Approved","OW185"
"2023-05-11 12:00",4.623,"Approved","OW185"
"2023-05-11 13:00",4.623,"Approved","OW185"
"2023-05-11 14:00",4.622,"Approved","OW185"
"2023-05-11 15:00",4.622,"Approved","OW185"
"2023-05-11 16:00",4.621,"Approved","OW185"
"2023-05-11 17:00",4.621,"Approved","OW185"
"2023-05-11 18:00",4.621,"Approved","OW185"
"2023-05-11 19:00",4.62,"Approved","OW185"
"2023-05-11 20:00",4.62,"Approved","OW185"
"2023-05-11 21:00",4.619,"Approved","OW185"
"2023-05-11 22:00",4.619,"Approved","OW185"
"2023-05-11 23:00",4.618,"Approved","OW185"
"2023-05-12 00:00",4.618,"Approved","OW185"
"2023-05-12 01:00",4.618,"Approved","OW185"
"2023-05-12 02:00",4.617,"Approved","OW185"
"2023-05-12 03:00",4.617,"Approved","OW185"
"2023-05-12 04:00",4.617,"Approved","OW185"
"2023-05-12 05:00",4.616,"Approved","OW185"
"2023-05-12 06:00",4.616,"Approved","OW185"
"2023-05-12 07:00",4.616,"Approved","OW185"
"2023-05-12 08:00",4.615,"Approved","OW185"
"2023-05-12 09:00",4.615,"Approved","OW185"
"2023-05-12 10:00",4.615,"Approved","OW185"
"2023-05-12 11:00",4.614,"Approved","OW185"
"2023-05-12 12:00",4.614,"Approved","OW185"
"2023-05-12 13:00",4.614,"Approved","OW185"
"2023-05-12 14:00",4.614,"Approved","OW185"
"2023-05-12 15:00",4.614,"Approved","OW185"
"2023-05-12 16:00",4.613,"Approved","OW185"
"2023-05-12 17:00",4.613,"Approved","OW185"
"2023-05-12 18:00",4.613,"Approved","OW185"
"2023-05-12 19:00",4.612,"Approved","OW185"
"2023-05-12 20:00",4.612,"Approved","OW185"
"2023-05-12 21:00",4.611,"Approved","OW185"
"2023-05-12 22:00",4.611,"Approved","OW185"
"2023-05-12 23:00",4.61,"Approved","OW185"
"2023-05-13 00:00",4.61,"Approved","OW185"
"2023-05-13 01:00",4.61,"Approved","OW185"
"2023-05-13 02:00",4.609,"Approved","OW185"
"2023-05-13 03:00",4.609,"Approved","OW185"
"2023-05-13 04:00",4.609,"Approved","OW185"
"2023-05-13 05:00",4.609,"Approved","OW185"
"2023-05-13 06:00",4.608,"Approved","OW185"
"2023-05-13 07:00",4.608,"Approved","OW185"
"2023-05-13 08:00",4.608,"Approved","OW185"
"2023-05-13 09:00",4.607,"Approved","OW185"
"2023-05-13 10:00",4.607,"Approved","OW185"
"2023-05-13 11:00",4.607,"Approved","OW185"
"2023-05-13 12:00",4.607,"Approved","OW185"
"2023-05-13 13:00",4.606,"Approved","OW185"
"2023-05-13 14:00",4.606,"Approved","OW185"
"2023-05-13 15:00",4.605,"Approved","OW185"
"2023-05-13 16:00",4.605,"Approved","OW185"
"2023-05-13 17:00",4.605,"Approved","OW185"
"2023-05-13 18:00",4.604,"Approved","OW185"
"2023-05-13 19:00",4.604,"Approved","OW185"
"2023-05-13 20:00",4.603,"Approved","OW185"
"2023-05-13 21:00",4.603,"Approved","OW185"
"2023-05-13 22:00",4.602,"Approved","OW185"
"2023-05-13 23:00",4.602,"Approved","OW185"
"2023-05-14 00:00",4.601,"Approved","OW185"
"2023-05-14 01:00",4.601,"Approved","OW185"
"2023-05-14 02:00",4.601,"Approved","OW185"
"2023-05-14 03:00",4.601,"Approved","OW185"
"2023-05-14 04:00",4.6,"Approved","OW185"
"2023-05-14 05:00",4.6,"Approved","OW185"
"2023-05-14 06:00",4.599,"Approved","OW185"
"2023-05-14 07:00",4.599,"Approved","OW185"
"2023-05-14 08:00",4.599,"Approved","OW185"
"2023-05-14 09:00",4.598,"Approved","OW185"
"2023-05-14 10:00",4.598,"Approved","OW185"
"2023-05-14 11:00",4.597,"Approved","OW185"
"2023-05-14 12:00",4.597,"Approved","OW185"
"2023-05-14 13:00",4.597,"Approved","OW185"
"2023-05-14 14:00",4.596,"Approved","OW185"
"2023-05-14 15:00",4.596,"Approved","OW185"
"2023-05-14 16:00",4.596,"Approved","OW185"
"2023-05-14 17:00",4.595,"Approved","OW185"
"2023-05-14 18:00",4.594,"Approved","OW185"
"2023-05-14 19:00",4.594,"Approved","OW185"
"2023-05-14 20:00",4.594,"Approved","OW185"
"2023-05-14 21:00",4.593,"Approved","OW185"
"2023-05-14 22:00",4.592,"Approved","OW185"
"2023-05-14 23:00",4.592,"Approved","OW185"
"2023-05-15 00:00",4.591,"Approved","OW185"
"2023-05-15 01:00",4.591,"Approved","OW185"
"2023-05-15 02:00",4.59,"Approved","OW185"
"2023-05-15 03:00",4.59,"Approved","OW185"
"2023-05-15 04:00",4.59,"Approved","OW185"
"2023-05-15 05:00",4.589,"Approved","OW185"
"2023-05-15 06:00",4.589,"Approved","OW185"
"2023-05-15 07:00",4.588,"Approved","OW185"
"2023-05-15 08:00",4.588,"Approved","OW185"
"2023-05-15 09:00",4.588,"Approved","OW185"
"2023-05-15 10:00",4.587,"Approved","OW185"
"2023-05-15 11:00",4.587,"Approved","OW185"
"2023-05-15 12:00",4.586,"Approved","OW185"
"2023-05-15 13:00",4.586,"Approved","OW185"
"2023-05-15 14:00",4.585,"Approved","OW185"
"2023-05-15 15:00",4.585,"Approved","OW185"
"2023-05-15 16:00",4.584,"Approved","OW185"
"2023-05-15 17:00",4.584,"Approved","OW185"
"2023-05-15 18:00",4.583,"Approved","OW185"
"2023-05-15 19:00",4.583,"Approved","OW185"
"2023-05-15 20:00",4.582,"Approved","OW185"
"2023-05-15 21:00",4.582,"Approved","OW185"
"2023-05-15 22:00",4.581,"Approved","OW185"
"2023-05-15 23:00",4.581,"Approved","OW185"
"2023-05-16 00:00",4.58,"Approved","OW185"
"2023-05-16 01:00",4.579,"Approved","OW185"
"2023-05-16 02:00",4.579,"Approved","OW185"
"2023-05-16 03:00",4.579,"Approved","OW185"
"2023-05-16 04:00",4.579,"Approved","OW185"
"2023-05-16 05:00",4.578,"Approved","OW185"
"2023-05-16 06:00",4.578,"Approved","OW185"
"2023-05-16 07:00",4.578,"Approved","OW185"
"2023-05-16 08:00",4.577,"Approved","OW185"
"2023-05-16 09:00",4.577,"Approved","OW185"
"2023-05-16 10:00",4.577,"Approved","OW185"
"2023-05-16 11:00",4.576,"Approved","OW185"
"2023-05-16 12:00",4.576,"Approved","OW185"
"2023-05-16 13:00",4.576,"Approved","OW185"
"2023-05-16 14:00",4.575,"Approved","OW185"
"2023-05-16 15:00",4.575,"Approved","OW185"
"2023-05-16 16:00",4.575,"Approved","OW185"
"2023-05-16 17:00",4.574,"Approved","OW185"
"2023-05-16 18:00",4.574,"Approved","OW185"
"2023-05-16 19:00",4.573,"Approved","OW185"
"2023-05-16 20:00",4.573,"Approved","OW185"
"2023-05-16 21:00",4.572,"Approved","OW185"
"2023-05-16 22:00",4.572,"Approved","OW185"
"2023-05-16 23:00",4.571,"Approved","OW185"
"2023-05-17 00:00",4.571,"Approved","OW185"
"2023-05-17 01:00",4.571,"Approved","OW185"
"2023-05-17 02:00",4.57,"Approved","OW185"
"2023-05-17 03:00",4.57,"Approved","OW185"
"2023-05-17 04:00",4.57,"Approved","OW185"
"2023-05-17 05:00",4.57,"Approved","OW185"
"2023-05-17 06:00",4.569,"Approved","OW185"
"2023-05-17 07:00",4.569,"Approved","OW185"
"2023-05-17 08:00",4.569,"Approved","OW185"
"2023-05-17 09:00",4.568,"Approved","OW185"
"2023-05-17 10:00",4.568,"Approved","OW185"
"2023-05-17 11:00",4.568,"Approved","OW185"
"2023-05-17 12:00",4.568,"Approved","OW185"
"2023-05-17 13:00",4.567,"Approved","OW185"
"2023-05-17 14:00",4.567,"Approved","OW185"
"2023-05-17 15:00",4.567,"Approved","OW185"
"2023-05-17 16:00",4.566,"Approved","OW185"
"2023-05-17 17:00",4.566,"Approved","OW185"
"2023-05-17 18:00",4.566,"Approved","OW185"
"2023-05-17 19:00",4.565,"Approved","OW185"
"2023-05-17 20:00",4.565,"Approved","OW185"
"2023-05-17 21:00",4.564,"Approved","OW185"
"2023-05-17 22:00",4.564,"Approved","OW185"
"2023-05-17 23:00",4.563,"Approved","OW185"
"2023-05-18 00:00",4.563,"Approved","OW185"
"2023-05-18 01:00",4.562,"Approved","OW185"
"2023-05-18 02:00",4.562,"Approved","OW185"
"2023-05-18 03:00",4.562,"Approved","OW185"
"2023-05-18 04:00",4.561,"Approved","OW185"
"2023-05-18 05:00",4.561,"Approved","OW185"
"2023-05-18 06:00",4.561,"Approved","OW185"
"2023-05-18 07:00",4.561,"Approved","OW185"
"2023-05-18 08:00",4.56,"Approved","OW185"
"2023-05-18 09:00",4.56,"Approved","OW185"
"2023-05-18 10:00",4.56,"Approved","OW185"
"2023-05-18 11:00",4.559,"Approved","OW185"
"2023-05-18 12:00",4.559,"Approved","OW185"
"2023-05-18 13:00",4.559,"Approved","OW185"
"2023-05-18 14:00",4.559,"Approved","OW185"
"2023-05-18 15:00",4.559,"Approved","OW185"
"2023-05-18 16:00",4.558,"Approved","OW185"
"2023-05-18 17:00",4.558,"Approved","OW185"
"2023-05-18 18:00",4.558,"Approved","OW185"
"2023-05-18 19:00",4.557,"Approved","OW185"
"2023-05-18 20:00",4.557,"Approved","OW185"
"2023-05-18 21:00",4.557,"Approved","OW185"
"2023-05-18 22:00",4.556,"Approved","OW185"
"2023-05-18 23:00",4.556,"Approved","OW185"
"2023-05-19 00:00",4.556,"Approved","OW185"
"2023-05-19 01:00",4.556,"Approved","OW185"
"2023-05-19 02:00",4.556,"Approved","OW185"
"2023-05-19 03:00",4.555,"Approved","OW185"
"2023-05-19 04:00",4.555,"Approved","OW185"
"2023-05-19 05:00",4.555,"Approved","OW185"
"2023-05-19 06:00",4.555,"Approved","OW185"
"2023-05-19 07:00",4.555,"Approved","OW185"
"2023-05-19 08:00",4.555,"Approved","OW185"
"2023-05-19 09:00",4.555,"Approved","OW185"
"2023-05-19 10:00",4.554,"Approved","OW185"
"2023-05-19 11:00",4.554,"Approved","OW185"
"2023-05-19 12:00",4.554,"Approved","OW185"
"2023-05-19 13:00",4.554,"Approved","OW185"
"2023-05-19 14:00",4.554,"Approved","OW185"
"2023-05-19 15:00",4.553,"Approved","OW185"
"2023-05-19 16:00",4.553,"Approved","OW185"
"2023-05-19 17:00",4.553,"Approved","OW185"
"2023-05-19 18:00",4.553,"Approved","OW185"
"2023-05-19 19:00",4.553,"Approved","OW185"
"2023-05-19 20:00",4.552,"Approved","OW185"
"2023-05-19 21:00",4.552,"Approved","OW185"
"2023-05-19 22:00",4.552,"Approved","OW185"
"2023-05-19 23:00",4.551,"Approved","OW185"
"2023-05-20 00:00",4.551,"Approved","OW185"
"2023-05-20 01:00",4.551,"Approved","OW185"
"2023-05-20 02:00",4.55,"Approved","OW185"
"2023-05-20 03:00",4.55,"Approved","OW185"
"2023-05-20 04:00",4.55,"Approved","OW185"
"2023-05-20 05:00",4.55,"Approved","OW185"
"2023-05-20 06:00",4.549,"Approved","OW185"
"2023-05-20 07:00",4.55,"Approved","OW185"
"2023-05-20 08:00",4.55,"Approved","OW185"
"2023-05-20 09:00",4.549,"Approved","OW185"
"2023-05-20 10:00",4.549,"Approved","OW185"
"2023-05-20 11:00",4.549,"Approved","OW185"
"2023-05-20 12:00",4.549,"Approved","OW185"
"2023-05-20 13:00",4.549,"Approved","OW185"
"2023-05-20 14:00",4.548,"Approved","OW185"
"2023-05-20 15:00",4.548,"Approved","OW185"
"2023-05-20 16:00",4.548,"Approved","OW185"
"2023-05-20 17:00",4.548,"Approved","OW185"
"2023-05-20 18:00",4.547,"Approved","OW185"
"2023-05-20 19:00",4.547,"Approved","OW185"
"2023-05-20 20:00",4.547,"Approved","OW185"
"2023-05-20 21:00",4.546,"Approved","OW185"
"2023-05-20 22:00",4.546,"Approved","OW185"
"2023-05-20 23:00",4.546,"Approved","OW185"
"2023-05-21 00:00",4.546,"Approved","OW185"
"2023-05-21 01:00",4.546,"Approved","OW185"
"2023-05-21 02:00",4.546,"Approved","OW185"
"2023-05-21 03:00",4.545,"Approved","OW185"
"2023-05-21 04:00",4.545,"Approved","OW185"
"2023-05-21 05:00",4.545,"Approved","OW185"
"2023-05-21 06:00",4.545,"Approved","OW185"
"2023-05-21 07:00",4.545,"Approved","OW185"
"2023-05-21 08:00",4.545,"Approved","OW185"
"2023-05-21 09:00",4.544,"Approved","OW185"
"2023-05-21 10:00",4.544,"Approved","OW185"
"2023-05-21 11:00",4.544,"Approved","OW185"
"2023-05-21 12:00",4.544,"Approved","OW185"
"2023-05-21 13:00",4.544,"Approved","OW185"
"2023-05-21 14:00",4.543,"Approved","OW185"
"2023-05-21 15:00",4.543,"Approved","OW185"
"2023-05-21 16:00",4.542,"Approved","OW185"
"2023-05-21 17:00",4.542,"Approved","OW185"
"2023-05-21 18:00",4.543,"Approved","OW185"
"2023-05-21 19:00",4.542,"Approved","OW185"
"2023-05-21 20:00",4.542,"Approved","OW185"
"2023-05-21 21:00",4.541,"Approved","OW185"
"2023-05-21 22:00",4.541,"Approved","OW185"
"2023-05-21 23:00",4.541,"Approved","OW185"
"2023-05-22 00:00",4.541,"Approved","OW185"
"2023-05-22 01:00",4.54,"Approved","OW185"
"2023-05-22 02:00",4.54,"Approved","OW185"
"2023-05-22 03:00",4.54,"Approved","OW185"
"2023-05-22 04:00",4.54,"Approved","OW185"
"2023-05-22 05:00",4.539,"Approved","OW185"
"2023-05-22 06:00",4.539,"Approved","OW185"
"2023-05-22 07:00",4.539,"Approved","OW185"
"2023-05-22 08:00",4.539,"Approved","OW185"
"2023-05-22 09:00",4.539,"Approved","OW185"
"2023-05-22 10:00",4.539,"Approved","OW185"
"2023-05-22 11:00",4.539,"Approved","OW185"
"2023-05-22 12:00",4.538,"Approved","OW185"
"2023-05-22 13:00",4.538,"Approved","OW185"
"2023-05-22 14:00",4.538,"Approved","OW185"
"2023-05-22 15:00",4.538,"Approved","OW185"
"2023-05-22 16:00",4.537,"Approved","OW185"
"2023-05-22 17:00",4.537,"Approved","OW185"
"2023-05-22 18:00",4.537,"Approved","OW185"
"2023-05-22 19:00",4.537,"Approved","OW185"
"2023-05-22 20:00",4.537,"Approved","OW185"
"2023-05-22 21:00",4.537,"Approved","OW185"
"2023-05-22 22:00",4.537,"Approved","OW185"
"2023-05-22 23:00",4.537,"Approved","OW185"
"2023-05-23 00:00",4.536,"Approved","OW185"
"2023-05-23 01:00",4.536,"Approved","OW185"
"2023-05-23 02:00",4.536,"Approved","OW185"
"2023-05-23 03:00",4.536,"Approved","OW185"
"2023-05-23 04:00",4.536,"Approved","OW185"
"2023-05-23 05:00",4.536,"Approved","OW185"
"2023-05-23 06:00",4.536,"Approved","OW185"
"2023-05-23 07:00",4.536,"Approved","OW185"
"2023-05-23 08:00",4.535,"Approved","OW185"
"2023-05-23 09:00",4.535,"Approved","OW185"
"2023-05-23 10:00",4.535,"Approved","OW185"
"2023-05-23 11:00",4.535,"Approved","OW185"
"2023-05-23 12:00",4.535,"Approved","OW185"
"2023-05-23 13:00",4.535,"Approved","OW185"
"2023-05-23 14:00",4.535,"Approved","OW185"
"2023-05-23 15:00",4.535,"Approved","OW185"
"2023-05-23 16:00",4.535,"Approved","OW185"
"2023-05-23 17:00",4.535,"Approved","OW185"
"2023-05-23 18:00",4.535,"Approved","OW185"
"2023-05-23 19:00",4.535,"Approved","OW185"
"2023-05-23 20:00",4.535,"Approved","OW185"
"2023-05-23 21:00",4.535,"Approved","OW185"
"2023-05-23 22:00",4.534,"Approved","OW185"
"2023-05-23 23:00",4.534,"Approved","OW185"
"2023-05-24 00:00",4.534,"Approved","OW185"
"2023-05-24 01:00",4.534,"Approved","OW185"
"2023-05-24 02:00",4.534,"Approved","OW185"
"2023-05-24 03:00",4.534,"Approved","OW185"
"2023-05-24 04:00",4.534,"Approved","OW185"
"2023-05-24 05:00",4.534,"Approved","OW185"
"2023-05-24 06:00",4.533,"Approved","OW185"
"2023-05-24 07:00",4.534,"Approved","OW185"
"2023-05-24 08:00",4.534,"Approved","OW185"
"2023-05-24 09:00",4.533,"Approved","OW185"
"2023-05-24 10:00",4.533,"Approved","OW185"
"2023-05-24 11:00",4.534,"Approved","OW185"
"2023-05-24 12:00",4.533,"Approved","OW185"
"2023-05-24 13:00",4.533,"Approved","OW185"
"2023-05-24 14:00",4.533,"Approved","OW185"
"2023-05-24 15:00",4.533,"Approved","OW185"
"2023-05-24 16:00",4.533,"Approved","OW185"
"2023-05-24 17:00",4.533,"Approved","OW185"
"2023-05-24 18:00",4.533,"Approved","OW185"
"2023-05-24 19:00",4.532,"Approved","OW185"
"2023-05-24 20:00",4.532,"Approved","OW185"
"2023-05-24 21:00",4.532,"Approved","OW185"
"2023-05-24 22:00",4.532,"Approved","OW185"
"2023-05-24 23:00",4.532,"Approved","OW185"
"2023-05-25 00:00",4.532,"Approved","OW185"
"2023-05-25 01:00",4.532,"Approved","OW185"
"2023-05-25 02:00",4.532,"Approved","OW185"
"2023-05-25 03:00",4.532,"Approved","OW185"
"2023-05-25 04:00",4.531,"Approved","OW185"
"2023-05-25 05:00",4.531,"Approved","OW185"
"2023-05-25 06:00",4.531,"Approved","OW185"
"2023-05-25 07:00",4.531,"Approved","OW185"
"2023-05-25 08:00",4.531,"Approved","OW185"
"2023-05-25 09:00",4.531,"Approved","OW185"
"2023-05-25 10:00",4.531,"Approved","OW185"
"2023-05-25 11:00",4.531,"Approved","OW185"
"2023-05-25 12:00",4.53,"Approved","OW185"
"2023-05-25 13:00",4.531,"Approved","OW185"
"2023-05-25 14:00",4.53,"Approved","OW185"
"2023-05-25 15:00",4.53,"Approved","OW185"
"2023-05-25 16:00",4.531,"Approved","OW185"
"2023-05-25 17:00",4.53,"Approved","OW185"
"2023-05-25 18:00",4.53,"Approved","OW185"
"2023-05-25 19:00",4.53,"Approved","OW185"
"2023-05-25 20:00",4.53,"Approved","OW185"
"2023-05-25 21:00",4.529,"Approved","OW185"
"2023-05-25 22:00",4.529,"Approved","OW185"
"2023-05-25 23:00",4.528,"Approved","OW185"
"2023-05-26 00:00",4.529,"Approved","OW185"
"2023-05-26 01:00",4.529,"Approved","OW185"
"2023-05-26 02:00",4.529,"Approved","OW185"
"2023-05-26 03:00",4.529,"Approved","OW185"
"2023-05-26 04:00",4.529,"Approved","OW185"
"2023-05-26 05:00",4.529,"Approved","OW185"
"2023-05-26 06:00",4.529,"Approved","OW185"
"2023-05-26 07:00",4.528,"Approved","OW185"
"2023-05-26 08:00",4.529,"Approved","OW185"
"2023-05-26 09:00",4.529,"Approved","OW185"
"2023-05-26 10:00",4.528,"Approved","OW185"
"2023-05-26 11:00",4.528,"Approved","OW185"
"2023-05-26 12:00",4.528,"Approved","OW185"
"2023-05-26 13:00",4.528,"Approved","OW185"
"2023-05-26 14:00",4.528,"Approved","OW185"
"2023-05-26 15:00",4.528,"Approved","OW185"
"2023-05-26 16:00",4.528,"Approved","OW185"
"2023-05-26 17:00",4.528,"Approved","OW185"
"2023-05-26 18:00",4.527,"Approved","OW185"
"2023-05-26 19:00",4.528,"Approved","OW185"
"2023-05-26 20:00",4.527,"Approved","OW185"
"2023-05-26 21:00",4.527,"Approved","OW185"
"2023-05-26 22:00",4.527,"Approved","OW185"
"2023-05-26 23:00",4.526,"Approved","OW185"
"2023-05-27 00:00",4.527,"Approved","OW185"
"2023-05-27 01:00",4.526,"Approved","OW185"
"2023-05-27 02:00",4.526,"Approved","OW185"
"2023-05-27 03:00",4.526,"Approved","OW185"
"2023-05-27 04:00",4.526,"Approved","OW185"
"2023-05-27 05:00",4.526,"Approved","OW185"
"2023-05-27 06:00",4.526,"Approved","OW185"
"2023-05-27 07:00",4.526,"Approved","OW185"
"2023-05-27 08:00",4.526,"Approved","OW185"
"2023-05-27 09:00",4.526,"Approved","OW185"
"2023-05-27 10:00",4.526,"Approved","OW185"
"2023-05-27 11:00",4.526,"Approved","OW185"
"2023-05-27 12:00",4.526,"Approved","OW185"
"2023-05-27 13:00",4.526,"Approved","OW185"
"2023-05-27 14:00",4.526,"Approved","OW185"
"2023-05-27 15:00",4.526,"Approved","OW185"
"2023-05-27 16:00",4.526,"Approved","OW185"
"2023-05-27 17:00",4.525,"Approved","OW185"
"2023-05-27 18:00",4.525,"Approved","OW185"
"2023-05-27 19:00",4.525,"Approved","OW185"
"2023-05-27 20:00",4.525,"Approved","OW185"
"2023-05-27 21:00",4.525,"Approved","OW185"
"2023-05-27 22:00",4.525,"Approved","OW185"
"2023-05-27 23:00",4.525,"Approved","OW185"
"2023-05-28 00:00",4.524,"Approved","OW185"
"2023-05-28 01:00",4.525,"Approved","OW185"
"2023-05-28 02:00",4.524,"Approved","OW185"
"2023-05-28 03:00",4.525,"Approved","OW185"
"2023-05-28 04:00",4.525,"Approved","OW185"